Probability
0 0 0 0 0 0 0 0 0 0 0 0 0 0 0 0 0 0 0 0 0 0 0 0 0 0 0 0 0 0 0 0 0 0 0 0 0 0 0 0 0 0 0
0 0 0 0 0 0 0 0 0 0 0 0 0 0 0 0 0 0 0 0 0 0 0 0 0 0 0 0 0 0 0 0 0 0 0 0 0 0 0 0 0 0 0
0 0 0 0 0 0 0 0 0 0 0 0 0 0 0 0 0 0 0 0 0 0 0 0 0 0 0 0 0 0 0 0 0 0 0 0 0 0 0 0 0 0 0
0 0 0 0 0 0 0 0 0 0 0 0 0 0 0 0 0 0 0 0 0 0 0 0 0 0 0 0 0 0 0 0 0 0 0 0 0 0 0 0 0 0 0
0 0 0 0 0 0 0 0 0 0 0 0 0 0 0 0 0 0 0 0 0 0 0 0 0 0 0 0 0 0 0 0 0 0 0 0 0 0 0 0 0 0 0
0 0 0 0 0 0 0 0 0 0 0 0 0 0 0 0 0 0 0 0 0 0 0 0 0 0 0 0 0 0 0 0 0 0 0 0 0 0 0 0 0 0 0
0 0 0 0 0 0 0 0 0 0 0 0 0 0 0 0 0 0 0 0 0 0 0 0 0 0 0 0 0 0 0 0 0 0 0 0 0 0 0 0 0 0 0
0 0 0 0 0 0 0 0 0 0 0 0 0 0 0 0 0 0 0 0 0 0 0 0 0 0 0 0 0 0 0 0 0 0 0 0 0 0 0 0 0 0 0
0 0 0 0 0 0 0 0 0 0 0 0 0 0 0 0 0 0 0 0 0 0 0 0 0 0 0 0 0 0 0 0 0 0 0 0 0 0 0 0 0 0 0
0 0 0 0 0 0 0 0 0 0 0 0 0 0 0 0 0 0 0 0 0 0 0 0 0 0 0 0 0 0 0 0 0 0 0 0 0 0 0 0 0 0 0
0 0 0 0 0 0 0 0 0 0 0 0 0 0 0 0 0 0 0 0 0 0 0 0 0 0 0 0 0 0 0 0 0 0 0 0 0 0 0 0 0 0 0
0 0 0 0 0 0 0 0 0 0 0 0 0 0 0 0 0 0 0 0 0 0 0 0 0 0 0 0 0 0 0 0 0 0 0 0 0 0 0 0 0 0 0
0 0 0 0 0 0 0 0 0 0 0 0 0 0 0 0 0 0 0 0 0 0 0 0 0 0 0 0 0 0 0 0 0 0 0 0 0 0 0 0 0 0 0
0 0 0 0 0 0 0 0 0 0 0 0 0 0 0 0 0 0 0 0 0 0 0 0 0 0 0 0 0 0 0 0 0 0 0 0 0 0 0 0 0 0 0
0 0 0 0 0 0 0 0 0 0 0 0 0 0 0 0 0 0 0 0 0 0 0 0 0 0 0 0 0 0 0 0 0 0 0 0 0 0 0 0 0 0 0
0 0 0 0 0 0 0 0 0 0 0 0 0 0 0 0 0 0 0 0 0 0 0 0 0 0 0 0 0 0 0 0 0 0 0 0 0 0 0 0 0 0 0
0 0 0 0 0 0 0 0 0 0 0 0 0 0 0 0 0 0 0 0 0 0 0 0 0 0 0 0 0 0 0 0 0 0 0 0 0 0 0 0 0 0 0
0 0 0 0 0 0 0 0 0 0 0 0 0 0 0 0 0 0 0 0 0 0 0 0 0 0 0 0 0 0 0 0 0 0 0 0 0 0 0 0 0 0 0
0 0 0 0 0 0 0 0 0 0 0 0 0 0 0 0 0 0 0 0 0 0 0 0 0 0 0 0 0 0 0 0 0 0 0 0 0 0 0 0 0 0 0
0 0 0 0 0 0 0 0 0 0 0 0 0 0 0 0 0 0 0 0 0 0 0 0 0 0 0 0 0 0 0 0 0 0 0 0 0 0 0 0 0 0 0
0 0 0 0 0 0 0 0 0 0 0 0 0 0 0 0 0 0 0 0 0 0 0 0 0 0 0 0 0 0 0 0 0 0 0 0 0 0 0 0 0 0 0
0 0 0 0 0 0 0 0 0 0 0 0 0 0 0 0 0 0 0 0 0 0 0 0 0 0 0 0 0 0 0 0 0 0 0 0 0 0 0 0 0 0 0
0 0 0 0 0 0 0 0 0 0 0 0 0 0 0 0 0 0 0 0 0 0 0 0 0 0 0 0 0 0 0 0 0 0 0 0 0 0 0 0 0 0 0
0 0 0 0 0 0 0 0 0 0 0 0 0 0 0 0 0 0 0 0 0 0 0 0 0 0 0 0 0 0 0 0 0 0 0 0 0 0 0 0 0 0 0
0 0 0 0 0 0 0 0 0 0 0 0 0 0 0 0 0 0 0 0 0 0 0 0 0 0 0 0 0 0 0 0 0 0 0 0 0 0 0 0 0 0 0
0 0 0 0 0 0 0 0 0 0 0 0 0 0 0 0 0 0 0 0 0 0 0 0 0 0 0 0 0 0 0 0 0 0 0 0 0 0 0 0 0 0 0
Wind_Speed
7 6 6 5 5 4 4 3 3 2 2 2 2 3 3 4 4 3 4 5 5 6 6 6 7 7 5 5 5 5 6 6 12 10 5 6 8 10 12 10 10 9 11
7 6 6 5 5 4 4 3 3 3 3 3 3 3 4 4 4 5 6 6 6 7 7 7 8 6 7 6 5 7 7 7 9 14 8 6 8 9 10 11 11 10 8
7 7 6 5 5 5 4 3 3 3 3 3 3 4 5 5 5 6 6 7 7 7 8 8 8 8 8 7 7 7 7 8 8 11 12 7 6 7 9 9 10 9 10
8 7 7 6 6 5 4 4 3 3 4 4 4 5 5 6 6 7 7 7 8 8 8 9 9 9 10 9 8 9 9 9 9 10 11 8 7 7 6 7 9 6 8
8 7 7 5 4 4 4 4 3 4 4 4 5 5 6 5 6 7 7 8 8 9 9 9 9 12 15 13 11 8 8 8 8 9 10 9 7 5 6 6 9 8 8
8 7 6 5 4 4 4 4 3 4 4 4 5 6 7 6 12 17 13 7 7 8 8 8 9 12 15 20 22 21 18 12 10 9 10 10 10 8 7 8 9 10 9
7 6 5 5 4 4 4 3 4 5 4 5 6 6 7 10 17 18 19 12 8 7 8 8 9 9 15 9 15 21 19 22 21 15 13 12 11 9 9 11 10 11 11
6 5 5 4 4 4 3 4 5 4 5 5 6 7 7 10 18 19 20 12 8 8 8 9 10 10 10 12 11 11 11 12 15 11 10 12 11 11 11 12 12 11 9
6 5 5 4 4 4 4 5 5 4 5 6 6 7 8 11 17 20 20 8 7 9 9 9 10 10 17 22 15 12 11 10 15 20 21 19 21 20 15 8 6 7 8
5 5 4 4 4 5 6 5 4 4 6 6 7 7 8 10 16 20 20 7 8 8 8 8 15 17 20 23 13 10 12 11 9 10 11 13 11 11 16 8 5 7 7
4 3 3 3 4 5 4 4 4 5 6 6 8 8 8 11 15 19 20 9 7 9 8 6 7 19 23 24 20 12 15 15 8 6 5 6 5 5 5 5 5 5 6
3 3 3 3 3 3 4 5 5 5 6 7 8 9 7 8 12 15 20 19 18 11 9 7 9 21 23 23 18 16 21 17 4 4 4 5 5 5 5 5 6 6 7
2 3 3 3 3 3 4 5 5 5 5 7 7 8 8 6 8 18 21 22 22 14 9 18 21 24 22 14 16 20 16 6 4 5 6 6 4 5 4 4 5 6 7
2 3 3 3 4 4 4 4 5 5 6 7 8 9 9 7 6 6 8 10 14 13 11 15 22 21 16 15 14 10 5 5 6 6 6 5 4 4 4 3 4 4 4
3 3 4 4 5 5 5 5 6 6 7 9 8 8 10 10 11 19 15 9 8 10 12 8 6 6 5 5 5 6 5 5 6 5 5 5 5 5 4 3 3 3 3
3 4 3 4 4 4 5 7 11 13 17 19 20 18 14 19 25 26 25 25 25 23 16 8 7 6 6 6 6 6 5 5 6 6 5 5 5 5 4 4 3 3 4
4 4 4 4 4 5 5 7 9 10 14 18 20 22 21 24 25 25 25 25 23 21 10 6 6 6 7 7 6 6 6 6 6 6 6 5 5 5 5 4 4 4 4
4 6 6 4 5 5 6 7 7 9 11 8 11 18 22 23 23 24 24 20 11 9 6 7 7 7 7 7 7 6 7 6 6 6 6 5 5 5 5 5 4 4 4
4 4 4 5 5 6 6 7 7 9 10 11 9 10 17 19 21 22 20 9 9 8 7 8 7 7 7 7 7 7 7 7 7 6 6 6 5 5 5 5 5 8 6
4 9 9 5 5 6 6 7 8 9 10 10 10 9 9 11 9 10 8 7 8 8 8 8 8 7 7 7 7 7 7 7 7 7 6 6 5 5 6 6 5 5 4
4 6 12 8 6 7 7 8 9 9 10 11 10 12 19 12 10 10 8 7 8 8 8 8 8 8 7 6 7 8 8 8 7 6 6 6 5 5 5 5 5 5 5
5 5 6 7 7 7 9 8 9 10 11 12 11 12 20 13 9 10 9 9 7 7 7 8 8 7 6 7 7 8 8 8 7 6 6 6 6 6 6 5 5 5 5
6 7 8 8 8 12 12 9 9 10 11 11 12 11 11 10 10 10 10 9 7 7 7 8 8 7 7 7 8 8 9 8 7 7 7 6 6 6 6 6 6 6 6
6 8 9 9 9 9 10 10 10 11 11 11 11 11 11 10 10 11 10 9 9 9 8 7 8 10 12 10 8 8 8 9 8 8 9 9 8 7 7 7 7 7 7
7 8 9 9 9 10 10 11 11 11 11 12 12 12 11 11 11 11 10 9 10 10 11 10 9 9 12 13 12 10 15 20 19 12 9 8 9 9 9 8 8 7 8
7 8 9 9 9 10 10 11 12 12 12 12 12 12 12 12 12 11 10 10 10 10 10 9 10 12 13 12 14 18 22 22 22 22 13 8 9 9 9 8 10 9 9
Wind_Direction
164 160 154 160 158 158 168 182 188 198 210 228 246 260 271 276 276 271 270 272 268 270 269 263 262 260 258 255 249 248 249 251 275 282 260 264 266 274 283 284 284 282 284
165 160 162 162 160 168 184 197 198 212 227 237 249 261 268 270 269 266 271 273 268 269 269 267 266 267 260 257 254 253 254 249 264 283 284 272 263 266 271 276 283 283 279
161 160 163 169 175 186 198 206 210 220 239 250 252 260 266 269 269 265 262 265 262 261 262 262 264 263 266 262 257 259 260 263 259 273 283 277 270 269 273 274 274 276 279
162 166 175 183 188 194 202 211 220 227 241 253 256 260 264 268 269 268 265 263 261 260 259 257 258 256 261 264 265 260 261 263 263 269 279 282 275 266 266 276 283 272 274
165 174 185 185 185 192 206 220 230 239 246 253 263 270 270 270 265 264 259 256 257 261 260 256 256 264 269 274 276 268 262 265 271 276 281 283 279 274 270 272 283 285 274
170 179 178 177 186 201 216 226 239 252 259 261 263 267 273 275 286 291 291 272 261 262 266 264 263 273 280 285 288 291 287 282 279 276 280 280 282 276 276 278 283 287 287
170 173 176 181 195 213 222 231 246 255 260 266 266 265 267 275 289 294 295 291 272 265 266 269 274 274 287 278 283 287 286 283 282 280 279 280 280 277 276 279 276 276 278
167 174 180 185 204 219 230 243 252 253 256 262 266 267 269 277 292 297 298 293 275 268 264 263 267 271 270 278 269 267 262 265 270 273 265 268 270 270 265 271 279 282 275
171 182 189 192 206 223 239 249 252 255 261 260 262 267 271 280 292 298 298 284 274 270 266 264 269 268 276 286 286 279 275 269 276 277 276 279 283 290 291 290 289 291 291
184 190 193 196 209 227 241 251 254 254 261 268 270 266 268 273 287 295 296 283 278 277 270 263 276 282 286 290 286 278 280 279 272 273 277 284 287 289 293 288 279 283 288
174 180 195 210 222 234 246 253 263 268 273 273 275 273 268 272 286 292 294 289 276 280 279 272 266 286 290 291 291 283 282 288 280 272 271 269 270 266 268 267 258 257 272
162 185 217 232 241 246 251 265 267 268 275 277 280 281 269 269 281 288 292 292 291 287 284 278 275 288 291 293 295 290 294 301 290 276 274 271 267 266 265 266 263 255 253
169 213 236 250 253 250 251 263 270 265 269 279 281 285 285 269 272 287 293 294 294 290 281 286 291 295 298 298 295 295 299 295 278 273 273 270 257 257 265 273 276 272 269
203 237 248 256 265 261 255 253 259 263 268 275 280 284 286 283 270 268 269 279 285 287 285 285 290 292 291 291 293 295 285 264 269 267 270 268 263 262 264 266 279 291 293
228 247 255 253 257 265 260 251 260 248 254 271 274 273 284 288 284 291 294 288 280 276 289 282 277 278 273 272 274 271 266 269 276 266 267 270 269 266 268 266 266 276 277
240 251 252 256 260 263 272 280 270 271 281 282 283 284 283 286 295 298 300 299 301 300 300 289 286 282 283 283 282 280 273 269 266 265 265 264 265 265 269 268 261 264 272
238 253 256 257 262 267 273 281 291 290 283 285 287 289 289 292 296 299 300 300 300 303 298 284 280 281 279 276 273 274 275 269 263 261 261 260 258 257 259 264 262 262 266
246 260 266 257 259 265 269 273 279 289 297 290 286 289 292 294 297 299 300 303 298 295 276 275 274 275 275 274 272 273 274 271 263 259 257 254 251 253 256 257 256 255 263
255 258 260 259 260 264 269 273 276 279 284 290 292 290 293 296 297 295 297 289 285 283 278 276 273 272 273 272 271 271 271 272 267 260 255 249 244 243 249 250 251 263 267
260 277 284 276 268 270 271 275 279 281 284 287 288 291 295 293 288 286 278 269 273 277 279 278 275 270 269 269 270 270 269 269 265 258 254 249 243 239 244 246 244 247 248
263 276 287 286 274 274 275 276 278 280 283 285 284 287 293 292 288 286 282 275 273 274 275 276 274 271 266 266 268 267 266 268 264 256 251 248 243 242 240 240 240 240 244
265 268 271 272 275 276 278 275 276 279 282 284 286 289 293 289 283 281 280 278 272 268 269 272 272 267 263 264 266 269 269 269 263 255 252 249 243 243 243 240 237 236 239
267 274 278 276 276 283 287 280 279 280 281 282 285 287 286 282 280 279 279 278 273 270 269 268 268 267 261 259 259 261 265 268 266 258 255 253 247 243 239 237 234 233 235
269 274 278 281 282 280 282 283 282 282 283 283 284 284 283 281 280 279 278 277 275 273 268 266 267 266 264 265 264 260 258 262 263 259 251 249 247 244 239 237 234 233 233
272 276 280 282 284 285 285 286 285 285 284 285 285 284 283 283 282 282 280 277 274 273 270 268 267 266 265 264 264 263 268 272 274 269 254 246 244 240 236 235 233 232 229
278 281 284 284 284 284 285 286 286 285 284 284 284 283 283 282 281 281 279 276 275 274 273 270 265 262 263 265 265 269 273 274 274 273 266 254 245 240 233 233 230 230 230